Home > Weather > Australia > Brisbane > Past weeks

Flag for Australia Weather past 2 weeks in Brisbane, Queensland, Australia

77 °F

Sprinkles. Broken clouds.

Feels Like: 78 °F
Forecast: 70 / 81 °F
Wind: 12 mph from North

Location: Brisbane Airport M. O

Current Time: Dec 2, 2015 at 4:45:43 AM

Latest Report: Dec 2, 2015 at 4:00 AM

Visibility: N/A

Pressure: 29.95 "Hg

Humidity: 83%

Dew point: 72 °F

Location of BrisbaneLocation

Historic Weather in Brisbane — Graph


Brisbane temperature yesterday

Maximum temperature yesterday: 82 °F (at 9:30 AM)
Minimum temperature yesterday: 72 °F (at 5:00 AM)
Average temperature yesterday: 78 °F

Past Weeks' High & Low Weather Summary

High84 °F (Nov 21, 11:00 AM)100% (Nov 29, 6:05 PM)30.12 "Hg (Nov 29, 6:05 PM)
Low61 °F (Nov 18, 3:30 AM)47% (Nov 17, 1:00 PM)29.74 "Hg (Nov 26, 4:00 PM)
Average76 °F76%29.95 "Hg
* Reported Nov 17 4:00 AM — Dec 2 4:00 AM, Brisbane, Weather by CustomWeather, © 2015

Note: Actual official high and low records may vary slightly from our data, if they occured in-between our weather recording intervals... More about our weather records


Brisbane weather history for previous 24 hours

Time TempWeatherWind HumidityBarometerVisibility
4:00 AM
Wed, Dec 2
77 °FSprinkles. Broken clouds.12 mph83%29.95 "HgN/A
3:30 AM77 °FPartly cloudy.9 mph79%29.95 "HgN/A
3:00 AM77 °FPartly cloudy.13 mph83%29.95 "HgN/A
2:30 AM77 °FScattered showers. Partly cloudy.12 mph83%29.95 "HgN/A
2:00 AM77 °FSprinkles. Partly cloudy.14 mph83%29.95 "HgN/A
1:30 AM77 °FSprinkles. Partly cloudy.15 mph83%29.95 "HgN/A
1:00 AM77 °FPartly cloudy.17 mph83%29.95 "HgN/A
12:30 AM77 °FScattered showers. Partly cloudy.17 mph83%29.95 "HgN/A
12:00 AM77 °FPartly cloudy.17 mph83%29.98 "HgN/A
11:30 PM
Tue, Dec 1
77 °FPartly cloudy.18 mph79%29.98 "HgN/A
11:00 PM77 °FPartly cloudy.18 mph83%29.98 "HgN/A
10:30 PM77 °FPartly cloudy.18 mph83%29.98 "HgN/A
10:00 PM77 °FPartly cloudy.17 mph83%30.01 "HgN/A
9:30 PM77 °FPartly cloudy.16 mph83%30.01 "HgN/A
9:00 PM77 °FPartly cloudy.16 mph83%30.01 "HgN/A
8:30 PM77 °FPartly cloudy.17 mph83%30.01 "HgN/A
8:00 PM77 °FPartly cloudy.17 mph83%29.98 "HgN/A
7:30 PM77 °FPartly cloudy.16 mph83%29.98 "HgN/A
7:00 PM79 °FPartly cloudy.17 mph79%29.95 "HgN/A
6:30 PM79 °FPartly cloudy.20 mph79%29.95 "HgN/A
5:30 PM79 °FPassing clouds.20 mph79%29.92 "HgN/A
5:00 PM79 °FPartly sunny.22 mph84%29.92 "HgN/A
4:30 PM79 °FPartly sunny.22 mph84%29.89 "HgN/A
4:00 PM79 °FPartly sunny.21 mph79%29.89 "HgN/A
3:30 PM81 °FOvercast.22 mph74%29.89 "HgN/A
2:30 PM81 °FPartly sunny.21 mph74%29.92 "HgN/A
2:00 PM81 °FPartly sunny.20 mph74%29.92 "HgN/A
1:00 PM82 °FPartly sunny.18 mph70%29.95 "HgN/A
12:30 PM81 °FPartly sunny.18 mph74%29.95 "HgN/A
12:00 PM82 °FPartly sunny.20 mph70%29.95 "HgN/A
11:00 AM82 °FPartly sunny.18 mph70%29.95 "HgN/A
10:00 AM82 °FPassing clouds.16 mph66%29.98 "HgN/A
9:30 AM82 °FPassing clouds.15 mph66%29.98 "HgN/A
9:00 AM81 °FPassing clouds.15 mph70%29.98 "HgN/A
8:00 AM81 °FPassing clouds.13 mph70%29.98 "HgN/A
7:00 AM77 °FPassing clouds.9 mph79%29.98 "HgN/A
6:30 AM75 °FPassing clouds.8 mph83%29.98 "HgN/A
6:00 AM73 °FPassing clouds.8 mph89%29.98 "HgN/A
5:30 AM73 °FPassing clouds.6 mph89%29.95 "HgN/A
5:00 AM72 °FPassing clouds.7 mph94%29.95 "HgN/A
4:30 AM73 °FPassing clouds.9 mph89%29.92 "HgN/A
4:00 AM73 °FPassing clouds.10 mph89%29.92 "HgN/A
Weather by CustomWeather, © 2015

See weather overviewHow to use our weather pages